EN

Hourly Weather Kyzylsay

Today, 30 July, Friday

Time Temperature Precipitation Wind Pressure Humidity
00:00 +28°C° 0 mm 5 mps 739 mmHg 21%
01:00 +27°C° 0 mm 5 mps 739 mmHg 21%
02:00 +27°C° 0 mm 4 mps 739 mmHg 22%
03:00 +27°C° 0 mm 4 mps 739 mmHg 23%
04:00 +26°C° 0 mm 4 mps 739 mmHg 25%
05:00 +27°C° 0 mm 3 mps 739 mmHg 25%
06:00 +27°C° 0 mm 3 mps 740 mmHg 25%
07:00 +27°C° 0 mm 2 mps 740 mmHg 25%
08:00 +29°C° 0 mm 2 mps 740 mmHg 22%
09:00 +30°C° 0 mm 2 mps 740 mmHg 19%
10:00 +32°C° 0 mm 2 mps 740 mmHg 17%
11:00 +34°C° 0 mm 2 mps 740 mmHg 16%
12:00 +35°C° 0 mm 3 mps 740 mmHg 14%
13:00 +35°C° 0 mm 3 mps 739 mmHg 13%
14:00 +36°C° 0 mm 3 mps 739 mmHg 13%
15:00 +36°C° 0 mm 3 mps 739 mmHg 13%
16:00 +36°C° 0 mm 3 mps 738 mmHg 12%
17:00 +36°C° 0 mm 3 mps 738 mmHg 12%
18:00 +36°C° 0 mm 3 mps 738 mmHg 13%
19:00 +36°C° 0 mm 4 mps 738 mmHg 13%
20:00 +35°C° 0 mm 3 mps 738 mmHg 14%
21:00 +34°C° 0 mm 3 mps 738 mmHg 15%
22:00 +33°C° 0 mm 3 mps 738 mmHg 16%
23:00 +33°C° 0 mm 3 mps 738 mmHg 16%

Tomorrow, 31 July, Saturday

Time Temperature Precipitation Wind Pressure Humidity
00:00 +31°C° 0 mm 3 mps 738 mmHg 17%
01:00 +30°C° 0 mm 3 mps 738 mmHg 18%
02:00 +30°C° 0 mm 3 mps 737 mmHg 18%
03:00 +29°C° 0 mm 3 mps 737 mmHg 19%
04:00 +29°C° 0 mm 3 mps 737 mmHg 20%
05:00 +29°C° 0 mm 3 mps 738 mmHg 19%
06:00 +29°C° 0 mm 3 mps 738 mmHg 19%
07:00 +29°C° 0 mm 3 mps 738 mmHg 19%
08:00 +32°C° 0 mm 4 mps 738 mmHg 17%
09:00 +34°C° 0 mm 5 mps 738 mmHg 15%
10:00 +36°C° 0 mm 6 mps 738 mmHg 13%
11:00 +38°C° 0 mm 6 mps 738 mmHg 12%
12:00 +37°C° 0 mm 5 mps 738 mmHg 12%
13:00 +38°C° 0 mm 4 mps 738 mmHg 11%
14:00 +38°C° 0 mm 4 mps 738 mmHg 11%
15:00 +38°C° 0 mm 3 mps 737 mmHg 11%
16:00 +38°C° 0 mm 2 mps 737 mmHg 11%
17:00 +38°C° 0 mm 3 mps 737 mmHg 11%
18:00 +38°C° 0 mm 3 mps 737 mmHg 11%
19:00 +38°C° 0 mm 3 mps 737 mmHg 11%
20:00 +37°C° 0 mm 3 mps 737 mmHg 12%
21:00 +36°C° 0 mm 3 mps 737 mmHg 13%
22:00 +35°C° 0 mm 3 mps 737 mmHg 14%
23:00 +34°C° 0 mm 3 mps 737 mmHg 14%

Day after tomorrow, 1 August, Sunday

Time Temperature Precipitation Wind Pressure Humidity
00:00 +34°C° 0 mm 3 mps 737 mmHg 15%
01:00 +33°C° 0 mm 3 mps 738 mmHg 16%
02:00 +31°C° 0 mm 3 mps 738 mmHg 16%
03:00 +30°C° 0 mm 3 mps 738 mmHg 17%
04:00 +29°C° 0 mm 4 mps 738 mmHg 18%
05:00 +30°C° 0 mm 4 mps 738 mmHg 17%
06:00 +30°C° 0 mm 3 mps 738 mmHg 16%
07:00 +30°C° 0 mm 3 mps 738 mmHg 16%
08:00 +33°C° 0 mm 3 mps 739 mmHg 14%
09:00 +35°C° 0 mm 3 mps 739 mmHg 13%
10:00 +36°C° 0 mm 3 mps 739 mmHg 11%
11:00 +37°C° 0 mm 4 mps 739 mmHg 11%
12:00 +38°C° 0 mm 4 mps 739 mmHg 11%
13:00 +40°C° 0 mm 5 mps 738 mmHg 10%
14:00 +40°C° 0 mm 5 mps 738 mmHg 10%
15:00 +40°C° 0 mm 5 mps 738 mmHg 9%
16:00 +40°C° 0 mm 5 mps 738 mmHg 8%
17:00 +40°C° 0 mm 5 mps 738 mmHg 8%
18:00 +40°C° 0 mm 4 mps 738 mmHg 8%
19:00 +38°C° 0 mm 4 mps 737 mmHg 8%
20:00 +37°C° 0 mm 3 mps 738 mmHg 9%
21:00 +36°C° 0 mm 3 mps 738 mmHg 9%
22:00 +34°C° 0 mm 2 mps 738 mmHg 10%
23:00 +33°C° 0 mm 1 mps 738 mmHg 10%

2 August, Monday

Time Temperature Precipitation Wind Pressure Humidity
00:00 +32°C° 0 mm 1 mps 738 mmHg 11%
01:00 +31°C° 0 mm 1 mps 738 mmHg 11%
02:00 +31°C° 0 mm 1 mps 738 mmHg 12%
03:00 +31°C° 0 mm 2 mps 737 mmHg 12%
04:00 +30°C° 0 mm 2 mps 737 mmHg 13%
05:00 +31°C° 0 mm 2 mps 738 mmHg 13%
06:00 +31°C° 0 mm 3 mps 738 mmHg 14%
07:00 +31°C° 0 mm 3 mps 738 mmHg 15%
08:00 +34°C° 0 mm 4 mps 738 mmHg 13%
09:00 +36°C° 0 mm 5 mps 738 mmHg 12%
10:00 +37°C° 0 mm 5 mps 739 mmHg 10%
11:00 +39°C° 0 mm 6 mps 738 mmHg 9%
12:00 +40°C° 0 mm 6 mps 738 mmHg 9%
13:00 +41°C° 0 mm 6 mps 738 mmHg 8%
14:00 +42°C° 0 mm 6 mps 738 mmHg 8%
15:00 +42°C° 0 mm 5 mps 737 mmHg 7%
16:00 +42°C° 0 mm 4 mps 737 mmHg 7%
17:00 +41°C° 0 mm 4 mps 737 mmHg 7%
18:00 +40°C° 0 mm 3 mps 737 mmHg 8%
19:00 +40°C° 0 mm 3 mps 737 mmHg 8%
20:00 +38°C° 0 mm 3 mps 737 mmHg 9%
21:00 +37°C° 0 mm 2 mps 737 mmHg 10%
22:00 +36°C° 0 mm 2 mps 737 mmHg 12%
23:00 +35°C° 0 mm 2 mps 737 mmHg 13%

3 August, Tuesday

Time Temperature Precipitation Wind Pressure Humidity
00:00 +33°C° 0 mm 1 mps 737 mmHg 14%
01:00 +32°C° 0 mm 1 mps 737 mmHg 15%
02:00 +32°C° 0 mm 1 mps 737 mmHg 14%
03:00 +32°C° 0 mm 2 mps 737 mmHg 14%
04:00 +32°C° 0 mm 2 mps 737 mmHg 14%
05:00 +32°C° 0 mm 2 mps 737 mmHg 14%
06:00 +34°C° 0 mm 2 mps 738 mmHg 13%
07:00 +34°C° 0 mm 3 mps 738 mmHg 13%
08:00 +36°C° 0 mm 3 mps 738 mmHg 11%
09:00 +38°C° 0 mm 3 mps 738 mmHg 10%
10:00 +40°C° 0 mm 3 mps 738 mmHg 9%
11:00 +40°C° 0 mm 3 mps 738 mmHg 9%
12:00 +42°C° 0 mm 3 mps 738 mmHg 9%
13:00 +42°C° 0 mm 3 mps 738 mmHg 9%
14:00 +42°C° 0 mm 3 mps 738 mmHg 9%
15:00 +42°C° 0 mm 2 mps 737 mmHg 9%
16:00 +42°C° 0 mm 1 mps 737 mmHg 9%
17:00 +41°C° 0 mm 2 mps 737 mmHg 9%
18:00 +41°C° 0 mm 2 mps 737 mmHg 9%
19:00 +41°C° 0 mm 2 mps 737 mmHg 10%
20:00 +39°C° 0 mm 2 mps 737 mmHg 11%
21:00 +38°C° 0 mm 3 mps 737 mmHg 12%
22:00 +37°C° 0 mm 3 mps 737 mmHg 13%
23:00 +36°C° 0 mm 3 mps 737 mmHg 15%

4 August, Wednesday

Time Temperature Precipitation Wind Pressure Humidity
00:00 +35°C° 0 mm 3 mps 737 mmHg 16%
01:00 +35°C° 0 mm 3 mps 737 mmHg 18%
02:00 +34°C° 0 mm 4 mps 737 mmHg 19%
03:00 +34°C° 0 mm 4 mps 737 mmHg 20%
04:00 +33°C° 0 mm 4 mps 737 mmHg 21%
05:00 +33°C° 0 mm 4 mps 738 mmHg 22%
06:00 +33°C° 0 mm 5 mps 738 mmHg 22%
07:00 +33°C° 0 mm 5 mps 738 mmHg 23%
08:00 +35°C° 0 mm 5 mps 738 mmHg 20%
09:00 +38°C° 0 mm 6 mps 739 mmHg 17%
10:00 +40°C° 0 mm 7 mps 739 mmHg 14%
11:00 +41°C° 0 mm 6 mps 739 mmHg 14%
12:00 +42°C° 0 mm 6 mps 738 mmHg 13%
13:00 +43°C° 0 mm 5 mps 738 mmHg 12%
14:00 +43°C° 0 mm 5 mps 738 mmHg 12%
15:00 +45°C° 0 mm 5 mps 738 mmHg 11%
16:00 +45°C° 0 mm 5 mps 737 mmHg 11%
17:00 +43°C° 0 mm 4 mps 737 mmHg 11%
18:00 +43°C° 0 mm 4 mps 737 mmHg 11%
19:00 +42°C° 0 mm 3 mps 737 mmHg 12%
20:00 +40°C° 0 mm 3 mps 737 mmHg 13%
21:00 +39°C° 0 mm 3 mps 737 mmHg 14%
22:00 +38°C° 0 mm 3 mps 738 mmHg 15%
23:00 +37°C° 0 mm 4 mps 738 mmHg 17%
Show more